COSMOS 2597 (RODNIK-S *)

Last updated on Wed Dec 31 2025 00:02:07 GMT+0000 (Coordinated Universal Time)

1 66647U 25273A 25364.59669784 .00000015 00000+0 39030-4 0 9996 2 66647 82.4996 275.3583 0010800 222.9767 137.0470 12.42797147 4354
UTC large
Height (km)
Speed (km/s)
/
Latitude / Longitude
Inclination (degrees)
Orbital Period (minutes)
Azimuth
Elevation
Range (km)
Doppler Factor

Next 0 passes for location: London (51.5072 / 0.1276)

Sorry there are no passes over London.